Bookmark and Share
Track history (hours):
 

Drifting buoy 43533

Last reported at 2014-Apr-19 22:00 UTC. Time now 2014-Apr-20 00:54 UTC.
Position N 13°05' W 099°19'.

Length 24 m.

Type: Fishing. MMSI: 412466549.

Water temperature 30.6 ° C

NotesDate/timePositionNaut miles runAvg speedWind from/ knotsBaromVisibWave heightAir tempDewpointWater temp
2014-Apr-19 22:00N 13°05' W 099°19'1 0.3 30.6
2014-Apr-19 19:00N 13°05' W 099°18'0 0.0 30.4
2014-Apr-19 18:00N 13°05' W 099°18'1 0.7 30.1
2014-Apr-19 16:00N 13°03' W 099°18'4 0.6 29.8
2014-Apr-19 09:00N 13°01' W 099°15'0 0.0 29.6
2014-Apr-19 08:00N 13°01' W 099°15'1 0.7 29.6
2014-Apr-19 07:00N 12°60' W 099°14'0 0.2 29.6
2014-Apr-19 05:00N 13°00' W 099°14'0 0.2 29.6
2014-Apr-19 03:00N 13°00' W 099°14'3 0.6 29.6
2014-Apr-18 22:00N 12°58' W 099°12'1 0.3 30.0
2014-Apr-18 19:00N 12°57' W 099°12'0 0.1 29.8
2014-Apr-18 17:00N 12°57' W 099°12'1 0.8 29.5
2014-Apr-18 16:00N 12°56' W 099°12'2 0.7 29.5
2014-Apr-18 13:00N 12°55' W 099°11'0 0.1 29.4
2014-Apr-18 09:00N 12°54' W 099°11'1 0.7 29.4
2014-Apr-18 07:00N 12°53' W 099°11'1 0.1 29.4
2014-Apr-18 03:00N 12°52' W 099°10'1 1.1 29.4
2014-Apr-18 02:00N 12°51' W 099°10'1 0.3 29.4
2014-Apr-18 00:00N 12°51' W 099°09'1 0.6 29.5
2014-Apr-17 22:00N 12°50' W 099°09'1 0.3 29.6
2014-Apr-17 20:00N 12°50' W 099°09'1 0.9 29.6
2014-Apr-17 19:00N 12°49' W 099°09'0 0.2 29.5
2014-Apr-17 17:00N 12°48' W 099°09'2 0.7 29.3
2014-Apr-17 14:00N 12°46' W 099°09'0 0.0 29.2
2014-Apr-17 13:00N 12°46' W 099°09'0 0.0 29.2
2014-Apr-17 12:00N 12°46' W 099°09'0 0.5 29.2
2014-Apr-17 11:00N 12°46' W 099°08'1 0.7 29.2
2014-Apr-17 09:00N 12°45' W 099°08'2 1.7 29.2
2014-Apr-17 08:00N 12°43' W 099°08'0 0.1 29.2
2014-Apr-17 05:00N 12°43' W 099°08'0 0.3 29.3
2014-Apr-17 04:00N 12°42' W 099°08'1 1.0 29.3
2014-Apr-17 03:00N 12°41' W 099°08'1 0.9 29.3
2014-Apr-17 02:00N 12°41' W 099°08'2 1.0 29.3
2014-Apr-17 00:00N 12°40' W 099°06'2 0.7 29.4
2014-Apr-16 21:00N 12°38' W 099°06'2 0.5 29.4
2014-Apr-16 17:00N 12°36' W 099°05'1 1.2 29.3
2014-Apr-16 16:00N 12°35' W 099°05'0 0.1 29.3
2014-Apr-16 15:00N 12°35' W 099°05'4 1.0 29.3
2014-Apr-16 11:00N 12°32' W 099°03'0 0.0 29.5
2014-Apr-16 10:00N 12°32' W 099°03'0 0.0 29.5
2014-Apr-16 09:00N 12°32' W 099°03'2 0.4 29.5
2014-Apr-16 04:00N 12°29' W 099°03'1 1.3 29.6
2014-Apr-16 03:00N 12°29' W 099°02'1 0.7 29.7
2014-Apr-16 02:00N 12°29' W 099°02'1 0.3 29.8
2014-Apr-16 00:00N 12°28' W 099°01'1 0.9 30.1
2014-Apr-15 23:00N 12°28' W 099°00'1 0.5 30.2
2014-Apr-15 21:00N 12°27' W 099°01'2 0.8 30.5
2014-Apr-15 19:00N 12°26' W 099°01'1 0.3 30.2
2014-Apr-15 16:00N 12°25' W 099°01'1 0.4 30.0
2014-Apr-15 13:00N 12°23' W 099°01'2 0.8 29.6
2014-Apr-15 11:00N 12°22' W 099°00'0 0.0 29.6
2014-Apr-15 10:00N 12°22' W 099°00'3 1.7 29.6
2014-Apr-15 08:00N 12°19' W 099°01'3 2.7 29.9
2014-Apr-15 07:00N 12°21' W 099°01'3 1.1 30.1
2014-Apr-15 04:00N 12°18' W 099°01'1 0.6 29.8
2014-Apr-15 03:00N 12°18' W 099°01'2 0.7 30.1
2014-Apr-15 00:00N 12°15' W 099°00'1 0.9 31.5
2014-Apr-14 23:00N 12°15' W 098°60'0 0.4 32.0
2014-Apr-14 22:00N 12°14' W 099°00'2 2.0 32.1
2014-Apr-14 21:00N 12°12' W 098°60'0 0.0 32.0
2014-Apr-14 20:00N 12°12' W 098°60'2 0.5 32.0
2014-Apr-14 16:00N 12°10' W 098°59'2 1.7 29.4
2014-Apr-14 15:00N 12°09' W 098°59'0 0.0 29.2
2014-Apr-14 13:00N 12°09' W 098°59'1 0.6 29.1
2014-Apr-14 11:00N 12°08' W 098°58'0 0.3 29.2
2014-Apr-14 10:00N 12°08' W 098°58'2 0.9 29.2
2014-Apr-14 08:00N 12°07' W 098°56'1 0.4 29.3
2014-Apr-14 05:00N 12°06' W 098°57'1 0.8 29.3
2014-Apr-14 04:00N 12°06' W 098°57'2 2.1 29.3
2014-Apr-14 03:00N 12°05' W 098°58'0 0.1 29.4
2014-Apr-14 00:00N 12°05' W 098°58'1 0.6 29.5
2014-Apr-13 23:00N 12°04' W 098°59'4 1.4 29.7
2014-Apr-13 20:00N 12°01' W 099°02'4 0.5 29.6
2014-Apr-13 12:00N 11°58' W 099°04'2 0.9 29.0
2014-Apr-13 10:00N 11°56' W 099°05'0 0.0 29.0
2014-Apr-13 09:00N 11°56' W 099°05'4 4.2 29.0
2014-Apr-13 08:00N 11°52' W 099°06'0 0.0 29.0
2014-Apr-13 07:00N 11°52' W 099°06'3 0.7 29.0
2014-Apr-13 03:00N 11°49' W 099°07'0 0.0 29.1
2014-Apr-13 02:00N 11°49' W 099°07'2 2.2 29.1
2014-Apr-13 01:00N 11°47' W 099°07'0 0.3 29.1
2014-Apr-13 00:00N 11°47' W 099°07'3 0.9 29.1
2014-Apr-12 21:00N 11°44' W 099°09'3 2.5 29.2
2014-Apr-12 20:00N 11°42' W 099°07'1 0.2 29.1
2014-Apr-12 16:00N 11°42' W 099°07'1 1.2 28.9
2014-Apr-12 15:00N 11°41' W 099°06'1 0.6 28.8
2014-Apr-12 13:00N 11°39' W 099°07'2 1.6 28.8
2014-Apr-12 12:00N 11°38' W 099°06'1 0.5 28.8
2014-Apr-12 10:00N 11°38' W 099°05'1 1.4 28.8
2014-Apr-12 09:00N 11°36' W 099°04'0 0.0 28.9
2014-Apr-12 08:00N 11°36' W 099°04'1 0.9 28.9
2014-Apr-12 07:00N 11°35' W 099°04'0 0.0 28.9
2014-Apr-12 06:00N 11°35' W 099°04'0 0.0 28.9
2014-Apr-12 05:00N 11°35' W 099°04'3 0.5 28.9
2014-Apr-12 00:00N 11°33' W 099°03'0 0.0 29.0
2014-Apr-11 23:00N 11°33' W 099°03'1 0.5 29.0
2014-Apr-11 20:00N 11°32' W 099°04'0 0.1 29.0
2014-Apr-11 17:00N 11°32' W 099°04'1 0.6 28.9
2014-Apr-11 16:00N 11°31' W 099°05'1 0.7 28.9
2014-Apr-11 15:00N 11°31' W 099°05'1 0.9 28.8
2014-Apr-11 14:00N 11°30' W 099°06'0 0.2 28.8
2014-Apr-11 12:00N 11°30' W 099°06'1 0.7 28.8
2014-Apr-11 11:00N 11°29' W 099°06'0 0.0 28.8
2014-Apr-11 10:00N 11°29' W 099°06'2 1.7 28.8
2014-Apr-11 09:00N 11°28' W 099°07'3 1.3 28.8
2014-Apr-11 07:00N 11°26' W 099°08'3 2.6 28.9
2014-Apr-11 06:00N 11°28' W 099°07'3 1.3 28.9
2014-Apr-11 04:00N 11°26' W 099°08'0 0.3 28.9
2014-Apr-11 03:00N 11°25' W 099°09'2 2.4 28.9
2014-Apr-11 02:00N 11°23' W 099°10'0 0.0 28.9
2014-Apr-11 01:00N 11°23' W 099°10'4 0.8 28.9
2014-Apr-10 20:00N 11°19' W 099°10'4 1.2 28.9
2014-Apr-10 17:00N 11°16' W 099°10'1 1.0 28.9
2014-Apr-10 16:00N 11°15' W 099°10'3 2.8 28.9
2014-Apr-10 15:00N 11°12' W 099°11'0 0.0 28.9
2014-Apr-10 12:00N 11°12' W 099°10'2 1.9 28.9
2014-Apr-10 11:00N 11°10' W 099°10'0 0.0 28.9
2014-Apr-10 10:00N 11°10' W 099°10'4 3.6 28.9
2014-Apr-10 09:00N 11°06' W 099°09'4 1.9 28.9
2014-Apr-10 07:00N 11°03' W 099°07'0 0.0 28.9
2014-Apr-10 04:00N 11°03' W 099°07'3 2.6 29.0
2014-Apr-10 03:00N 11°01' W 099°06'0 0.0 29.0
2014-Apr-10 02:00N 11°01' W 099°06'2 0.9 29.0
2014-Apr-10 00:00N 10°60' W 099°05'4 2.2 29.0
2014-Apr-09 22:00N 10°58' W 099°01'   29.1

Dump ship's entire track history

sailing weather and tide predictions

Buoy 43533